Location: Unspecified
(0.0000°N, 0.0000°E)
Time: 18:20:33
(UTC+00:00)

COSMOS 2498 - Pass Details

Date: 26 May 2026
Orbit: 1476 x 1512 km, 82.4° (Epoch: 10 June)

Event Time Altitude Azimuth Distance (km) Brightness Sun altitude
Rises 02:45:18 0° 18° (NNE) 4,583 ? -43.8°
Reaches altitude 10° 02:48:37 10° 28° (NNE) 3,608 ? -43.1°
Maximum altitude 02:55:57 31° 87° (E) 2,369 ? -41.5°
Drops below altitude 10° 03:03:19 10° 145° (SE) 3,637 ? -39.9°
Sets 03:06:37 0° 155° (SSE) 4,625 ? -39.2°
